Location: Unspecified
(51.5147°N, 7.4673°E)
Time: 08:25:15
(UTC+01:00)

Vanguard 1 Rocket - Pass Details

Date: 25 February 2026
Orbit: 653 x 4214 km, 34.3° (Epoch: 11 March)

Event Time Altitude Azimuth Distance (km) Brightness Sun altitude
Rises 14:07:52 0° 242° (WSW) 4,056 11.5 26.8°
Reaches altitude 10° 14:10:29 10° 232° (SW) 3,417 11.5 26.7°
Maximum altitude 14:18:14 33° 172° (S) 2,976 11.3 26.1°
Drops below altitude 10° 14:31:31 10° 118° (ESE) 5,907 11.6 25.2°
Sets 14:37:54 0° 111° (ESE) 7,492 12.0 24.7°
